Orbital Elements at Epoch 2459200.5 (2020-Dec-17.0) TDB
Reference: JPL 33 (heliocentric ecliptic J2000)
Element | Value | Uncertainty (1-sigma) | Units |
e | .1369322168009598 | 2.9113e-08 | |
a | 2.357078277820602 | 8.7857e-09 | au |
q | 2.034318324065238 | 6.8355e-08 | au |
i | 3.224876212692162 | 3.2732e-06 | deg |
node | 212.3002861008553 | 5.8972e-05 | deg |
peri | 88.36108089638161 | 6.0201e-05 | deg |
M | 254.1766471447311 | 1.2697e-05 | deg |
tp | 2459589.042429839380 (2022-Jan-09.54242984) | 4.7277e-05 | TDB |
period | 1321.780788154382 3.62 | 7.3902e-06 2.023e-08 | d yr |
n | .2723598369913306 | 1.5228e-09 | deg/d |
Q | 2.679838231575965 | 9.9888e-09 | au |
|
| | Orbit Determination Parameters
Additional Information
|